Voltar ao catálogo

STARLINK-2659

AtivoComunicaçõesVLEO
NORAD 48467·PAYLOAD·🇺🇸 United States

Lançado May 9, 2021 de Cape Canaveral Space Force Station

Loading…

Próximas Passagens (próximas 24 horas)

TLE

AtualizadoSource: CelesTrak SupGP

Época: Sep 14, 2026, 21:14 UTC

1 48467C 21040AR  26257.88520833  .00030416  00000+0  97771-3 0  2579
2 48467  53.1599  30.5233 0001143  84.2969  83.8883 15.31700029    13

Acompanhe STARLINK-2659 em tempo real com AllMySat

Download on the App Store